| time (UTC) | temp F | wind direction | speed MPH | gust MPH | rain 1hr in | rain 24hr in | rain mn in | humidity % | barometer mb |
| 20260505050903 | 58 | 93 | 0.0 | 0.0 | 0.00 | 0.00 | 0.00 | 55 | 1008.9 |
| 20260505050802 | 58 | 93 | 0.0 | 0.0 | 0.00 | 0.00 | 0.00 | 55 | 1008.9 |
| 20260505050702 | 59 | 93 | 0.0 | 0.0 | 0.00 | 0.00 | 0.00 | 55 | 1008.8 |
| 20260505050602 | 59 | 94 | 0.0 | 1.0 | 0.00 | 0.00 | 0.00 | 55 | 1008.9 |
| 20260505050502 | 59 | 93 | 0.0 | 2.0 | 0.00 | 0.00 | 0.00 | 55 | 1008.9 |
| 20260505050403 | 59 | 93 | 0.0 | 2.0 | 0.00 | 0.00 | 0.00 | 55 | 1008.8 |
| 20260505050304 | 59 | 94 | 0.0 | 2.0 | 0.00 | 0.00 | 0.00 | 55 | 1008.7 |
| 20260505041702 | 62 | 38 | 2.0 | 8.0 | 0.00 | 0.00 | 0.00 | 49 | 1008.4 |
| 20260505041602 | 62 | 156 | 2.0 | 8.0 | 0.00 | 0.00 | 0.00 | 49 | 1008.3 |
| 20260505041502 | 61 | 200 | 3.0 | 8.0 | 0.00 | 0.00 | 0.00 | 49 | 1008.3 |
| 20260505041402 | 61 | 90 | 3.0 | 8.0 | 0.00 | 0.00 | 0.00 | 49 | 1008.2 |
| 20260505041302 | 61 | 64 | 2.0 | 8.0 | 0.00 | 0.00 | 0.00 | 50 | 1008.3 |
| 20260505041202 | 61 | 125 | 2.0 | 8.0 | 0.00 | 0.00 | 0.00 | 50 | 1008.2 |
| 20260505041102 | 61 | 82 | 2.0 | 8.0 | 0.00 | 0.00 | 0.00 | 50 | 1008.2 |
| 20260505041004 | 61 | 61 | 2.0 | 8.0 | 0.00 | 0.00 | 0.00 | 50 | 1008.1 |
| 20260505040903 | 61 | 37 | 2.0 | 8.0 | 0.00 | 0.00 | 0.00 | 50 | 1008.1 |
| 20260505040802 | 61 | 103 | 1.0 | 6.0 | 0.00 | 0.00 | 0.00 | 49 | 1008.1 |
| 20260505040702 | 61 | 88 | 2.0 | 6.0 | 0.00 | 0.00 | 0.00 | 49 | 1008.2 |
| 20260505040602 | 61 | 55 | 2.0 | 6.0 | 0.00 | 0.00 | 0.00 | 49 | 1008.1 |
| 20260505040403 | 61 | 62 | 1.0 | 6.0 | 0.00 | 0.00 | 0.00 | 48 | 1008.1 |
| 20260505040303 | 62 | 85 | 1.0 | 6.0 | 0.00 | 0.00 | 0.00 | 48 | 1008.1 |
| 20260505040203 | 62 | 83 | 1.0 | 3.0 | 0.00 | 0.00 | 0.00 | 48 | 1008.1 |
| 20260505035903 | 62 | 113 | 1.0 | 3.0 | 0.00 | 0.00 | 0.00 | 47 | 1008.1 |
| 20260505035802 | 62 | 100 | 1.0 | 3.0 | 0.00 | 0.00 | 0.00 | 47 | 1008.1 |
| 20260505035702 | 62 | 103 | 1.0 | 3.0 | 0.00 | 0.00 | 0.00 | 47 | 1008.0 |
| 20260505035603 | 62 | 115 | 1.0 | 3.0 | 0.00 | 0.00 | 0.00 | 47 | 1008.0 |
| 20260505035502 | 62 | 107 | 1.0 | 3.0 | 0.00 | 0.00 | 0.00 | 47 | 1008.0 |
| 20260505035402 | 62 | 57 | 1.0 | 3.0 | 0.00 | 0.00 | 0.00 | 47 | 1008.0 |
| 20260505035202 | 62 | 82 | 1.0 | 3.0 | 0.00 | 0.00 | 0.00 | 47 | 1007.9 |
| 20260505035102 | 62 | 84 | 1.0 | 3.0 | 0.00 | 0.00 | 0.00 | 48 | 1007.9 |
| 20260505035004 | 62 | 97 | 1.0 | 3.0 | 0.00 | 0.00 | 0.00 | 47 | 1007.9 |
| 20260505034902 | 62 | 102 | 1.0 | 3.0 | 0.00 | 0.00 | 0.00 | 47 | 1007.8 |
| 20260505034702 | 62 | 101 | 0.0 | 2.0 | 0.00 | 0.00 | 0.00 | 48 | 1007.8 |
| 20260505034503 | 62 | 86 | 0.0 | 3.0 | 0.00 | 0.00 | 0.00 | 47 | 1007.8 |
| 20260505034402 | 62 | 87 | 0.0 | 3.0 | 0.00 | 0.00 | 0.00 | 47 | 1007.8 |
| 20260505034302 | 62 | 65 | 0.0 | 3.0 | 0.00 | 0.00 | 0.00 | 47 | 1007.8 |
| 20260505034202 | 62 | 82 | 0.0 | 3.0 | 0.00 | 0.00 | 0.00 | 47 | 1007.8 |
| 20260505034102 | 62 | 86 | 0.0 | 3.0 | 0.00 | 0.00 | 0.00 | 47 | 1007.7 |
| 20260505034003 | 62 | 97 | 0.0 | 3.0 | 0.00 | 0.00 | 0.00 | 47 | 1007.7 |
| 20260505033902 | 62 | 146 | 0.0 | 3.0 | 0.00 | 0.00 | 0.00 | 47 | 1007.7 |
| 20260505033802 | 62 | 182 | 1.0 | 3.0 | 0.00 | 0.00 | 0.00 | 47 | 1007.7 |
| 20260505033702 | 62 | 164 | 0.0 | 3.0 | 0.00 | 0.00 | 0.00 | 47 | 1007.7 |
| 20260505033602 | 62 | 87 | 1.0 | 3.0 | 0.00 | 0.00 | 0.00 | 47 | 1007.7 |
| 20260505033502 | 62 | 82 | 1.0 | 3.0 | 0.00 | 0.00 | 0.00 | 47 | 1007.7 |
| 20260505033401 | 62 | 134 | 1.0 | 4.0 | 0.00 | 0.00 | 0.00 | 47 | 1007.7 |
| 20260505033202 | 62 | 86 | 1.0 | 5.0 | 0.00 | 0.00 | 0.00 | 47 | 1007.6 |
| 20260505033103 | 62 | 95 | 1.0 | 5.0 | 0.00 | 0.00 | 0.00 | 46 | 1007.6 |
| 20260505033004 | 62 | 77 | 1.0 | 5.0 | 0.00 | 0.00 | 0.00 | 46 | 1007.6 |
| 20260505032902 | 62 | 107 | 1.0 | 5.0 | 0.00 | 0.00 | 0.00 | 46 | 1007.6 |
| 20260505032802 | 62 | 195 | 0.0 | 5.0 | 0.00 | 0.00 | 0.00 | 46 | 1007.5 |
| 20260505032702 | 62 | 107 | 0.0 | 5.0 | 0.00 | 0.00 | 0.00 | 46 | 1007.5 |
| 20260505032502 | 62 | 258 | 0.0 | 5.0 | 0.00 | 0.00 | 0.00 | 46 | 1007.5 |
| 20260505032304 | 62 | 67 | 0.0 | 0.0 | 0.00 | 0.00 | 0.00 | 45 | 1007.4 |
| 20260505032202 | 62 | 67 | 0.0 | 0.0 | 0.00 | 0.00 | 0.00 | 45 | 1007.5 |
| 20260505031901 | 62 | 66 | 0.0 | 0.0 | 0.00 | 0.00 | 0.00 | 44 | 1007.3 |
| 20260505031802 | 62 | 66 | 0.0 | 0.0 | 0.00 | 0.00 | 0.00 | 44 | 1007.4 |
| 20260505031702 | 62 | 66 | 0.0 | 0.0 | 0.00 | 0.00 | 0.00 | 44 | 1007.3 |
| 20260505031602 | 62 | 66 | 0.0 | 0.0 | 0.00 | 0.00 | 0.00 | 44 | 1007.4 |
| 20260505031502 | 62 | 66 | 0.0 | 0.0 | 0.00 | 0.00 | 0.00 | 44 | 1007.3 |
| 20260505031403 | 62 | 66 | 0.0 | 0.0 | 0.00 | 0.00 | 0.00 | 44 | 1007.3 |
| 20260505031303 | 62 | 66 | 0.0 | 0.0 | 0.00 | 0.00 | 0.00 | 43 | 1007.2 |
| 20260505031203 | 62 | 66 | 0.0 | 0.0 | 0.00 | 0.00 | 0.00 | 43 | 1007.2 |
| 20260505031103 | 62 | 66 | 0.0 | 1.0 | 0.00 | 0.00 | 0.00 | 43 | 1007.2 |
| 20260505030903 | 62 | 66 | 0.0 | 1.0 | 0.00 | 0.00 | 0.00 | 42 | 1007.2 |
| 20260505030803 | 63 | 66 | 0.0 | 1.0 | 0.00 | 0.00 | 0.00 | 42 | 1007.1 |
| 20260505030702 | 63 | 66 | 0.0 | 1.0 | 0.00 | 0.00 | 0.00 | 42 | 1007.2 |
| 20260505030601 | 63 | 66 | 0.0 | 1.0 | 0.00 | 0.00 | 0.00 | 42 | 1007.1 |
| 20260505030442 | 63 | 66 | 0.0 | 1.0 | 0.00 | 0.00 | 0.00 | 42 | 1007.1 |
| 20260505030332 | 63 | 66 | 0.0 | 1.0 | 0.00 | 0.00 | 0.00 | 42 | 1007.0 |
| 20260505030223 | 63 | 66 | 0.0 | 0.0 | 0.00 | 0.00 | 0.00 | 42 | 1007.0 |
| 20260505030111 | 63 | 66 | 0.0 | 0.0 | 0.00 | 0.00 | 0.00 | 42 | 1007.0 |
| 20260505030004 | 63 | 66 | 0.0 | 1.0 | 0.00 | 0.00 | 0.00 | 42 | 1007.0 |
| 20260505025901 | 63 | 66 | 0.0 | 1.0 | 0.00 | 0.00 | 0.00 | 42 | 1007.0 |
| 20260505025800 | 63 | 66 | 0.0 | 1.0 | 0.00 | 0.00 | 0.00 | 41 | 1007.0 |
| 20260505025742 | 63 | 66 | 0.0 | 1.0 | 0.00 | 0.00 | 0.00 | 41 | 1007.0 |
| 20260505025632 | 63 | 66 | 0.0 | 1.0 | 0.00 | 0.00 | 0.00 | 42 | 1007.0 |
| 20260505025521 | 63 | 66 | 0.0 | 1.0 | 0.00 | 0.00 | 0.00 | 42 | 1006.9 |
| 20260505025413 | 63 | 66 | 0.0 | 1.0 | 0.00 | 0.00 | 0.00 | 41 | 1006.9 |
| 20260505025003 | 64 | 66 | 0.0 | 1.0 | 0.00 | 0.00 | 0.00 | 41 | 1006.9 |
| 20260505024802 | 64 | 158 | 0.0 | 1.0 | 0.00 | 0.00 | 0.00 | 40 | 1006.9 |
| 20260505024702 | 64 | 158 | 0.0 | 1.0 | 0.00 | 0.00 | 0.00 | 40 | 1006.9 |
| 20260505024603 | 64 | 158 | 0.0 | 1.0 | 0.00 | 0.00 | 0.00 | 40 | 1006.9 |
| 20260505024504 | 64 | 158 | 0.0 | 1.0 | 0.00 | 0.00 | 0.00 | 40 | 1006.8 |
| 20260505024403 | 64 | 158 | 0.0 | 1.0 | 0.00 | 0.00 | 0.00 | 40 | 1006.8 |
| 20260505024302 | 64 | 156 | 0.0 | 1.0 | 0.00 | 0.00 | 0.00 | 40 | 1006.9 |
| 20260505024202 | 64 | 163 | 0.0 | 1.0 | 0.00 | 0.00 | 0.00 | 40 | 1006.8 |
| 20260505024102 | 65 | 163 | 0.0 | 2.0 | 0.00 | 0.00 | 0.00 | 39 | 1006.8 |
| 20260505024003 | 65 | 163 | 0.0 | 2.0 | 0.00 | 0.00 | 0.00 | 39 | 1006.8 |
| 20260505023902 | 65 | 163 | 0.0 | 2.0 | 0.00 | 0.00 | 0.00 | 39 | 1006.7 |
| 20260505023803 | 65 | 163 | 0.0 | 2.0 | 0.00 | 0.00 | 0.00 | 39 | 1006.7 |
| 20260505023701 | 65 | 163 | 0.0 | 2.0 | 0.00 | 0.00 | 0.00 | 39 | 1006.8 |
| 20260505023602 | 65 | 163 | 0.0 | 2.0 | 0.00 | 0.00 | 0.00 | 39 | 1006.8 |
| 20260505023502 | 65 | 128 | 0.0 | 2.0 | 0.00 | 0.00 | 0.00 | 39 | 1006.8 |
| 20260505023302 | 65 | 144 | 0.0 | 2.0 | 0.00 | 0.00 | 0.00 | 39 | 1006.7 |
| 20260505023202 | 65 | 145 | 0.0 | 1.0 | 0.00 | 0.00 | 0.00 | 38 | 1006.8 |
| 20260505023002 | 66 | 64 | 0.0 | 1.0 | 0.00 | 0.00 | 0.00 | 38 | 1006.7 |
| 20260505022902 | 66 | 64 | 0.0 | 1.0 | 0.00 | 0.00 | 0.00 | 38 | 1006.8 |
| 20260505022802 | 66 | 63 | 0.0 | 2.0 | 0.00 | 0.00 | 0.00 | 38 | 1006.7 |
| 20260505022702 | 66 | 63 | 0.0 | 2.0 | 0.00 | 0.00 | 0.00 | 38 | 1006.8 |
| 20260505022602 | 66 | 61 | 0.0 | 2.0 | 0.00 | 0.00 | 0.00 | 38 | 1006.8 |
| 20260505022402 | 66 | 92 | 0.0 | 2.0 | 0.00 | 0.00 | 0.00 | 38 | 1006.8 |
| 20260505022304 | 66 | 92 | 0.0 | 2.0 | 0.00 | 0.00 | 0.00 | 38 | 1006.8 |
| 20260505022202 | 66 | 113 | 0.0 | 2.0 | 0.00 | 0.00 | 0.00 | 38 | 1006.7 |
| 20260505022102 | 67 | 141 | 0.0 | 2.0 | 0.00 | 0.00 | 0.00 | 37 | 1006.7 |
| 20260505022005 | 67 | 141 | 1.0 | 2.0 | 0.00 | 0.00 | 0.00 | 37 | 1006.6 |
| 20260505021902 | 67 | 92 | 1.0 | 2.0 | 0.00 | 0.00 | 0.00 | 37 | 1006.7 |
| 20260505021701 | 67 | 116 | 1.0 | 7.0 | 0.00 | 0.00 | 0.00 | 37 | 1006.7 |
| 20260505021602 | 67 | 157 | 1.0 | 7.0 | 0.00 | 0.00 | 0.00 | 37 | 1006.7 |
| 20260505021403 | 67 | 143 | 1.0 | 7.0 | 0.00 | 0.00 | 0.00 | 37 | 1006.7 |
| 20260505021302 | 67 | 168 | 1.0 | 7.0 | 0.00 | 0.00 | 0.00 | 37 | 1006.7 |
| 20260505021202 | 67 | 150 | 1.0 | 7.0 | 0.00 | 0.00 | 0.00 | 37 | 1006.7 |
| 20260505021102 | 67 | 100 | 1.0 | 7.0 | 0.00 | 0.00 | 0.00 | 37 | 1006.7 |
| 20260505021008 | 68 | 132 | 1.0 | 7.0 | 0.00 | 0.00 | 0.00 | 37 | 1006.7 |
| 20260505020903 | 68 | 147 | 1.0 | 3.0 | 0.00 | 0.00 | 0.00 | 37 | 1006.7 |
| 20260505020802 | 68 | 137 | 1.0 | 3.0 | 0.00 | 0.00 | 0.00 | 37 | 1006.6 |
| 20260505020702 | 68 | 137 | 1.0 | 4.0 | 0.00 | 0.00 | 0.00 | 37 | 1006.7 |
| 20260505020603 | 68 | 176 | 1.0 | 3.0 | 0.00 | 0.00 | 0.00 | 37 | 1006.7 |
| 20260505020502 | 68 | 144 | 1.0 | 4.0 | 0.00 | 0.00 | 0.00 | 37 | 1006.7 |
| 20260505020402 | 68 | 138 | 1.0 | 4.0 | 0.00 | 0.00 | 0.00 | 37 | 1006.6 |
| 20260505020302 | 68 | 125 | 1.0 | 4.0 | 0.00 | 0.00 | 0.00 | 37 | 1006.6 |
| 20260505020206 | 68 | 170 | 1.0 | 4.0 | 0.00 | 0.00 | 0.00 | 36 | 1006.6 |
| 20260505020111 | 69 | 169 | 1.0 | 4.0 | 0.00 | 0.00 | 0.00 | 36 | 1006.7 |
| 20260505020013 | 69 | 157 | 1.0 | 4.0 | 0.00 | 0.00 | 0.00 | 36 | 1006.7 |
| 20260505015902 | 69 | 132 | 1.0 | 4.0 | 0.00 | 0.00 | 0.00 | 36 | 1006.7 |
| 20260505015802 | 69 | 181 | 1.0 | 4.0 | 0.00 | 0.00 | 0.00 | 37 | 1006.6 |
| 20260505015702 | 69 | 140 | 1.0 | 4.0 | 0.00 | 0.00 | 0.00 | 36 | 1006.6 |
| 20260505015602 | 69 | 142 | 1.0 | 4.0 | 0.00 | 0.00 | 0.00 | 36 | 1006.7 |
| 20260505015502 | 69 | 143 | 1.0 | 4.0 | 0.00 | 0.00 | 0.00 | 36 | 1006.6 |
| 20260505015402 | 69 | 144 | 1.0 | 4.0 | 0.00 | 0.00 | 0.00 | 35 | 1006.6 |
| 20260505015303 | 69 | 136 | 1.0 | 4.0 | 0.00 | 0.00 | 0.00 | 35 | 1006.6 |
| 20260505015206 | 69 | 122 | 1.0 | 5.0 | 0.00 | 0.00 | 0.00 | 35 | 1006.7 |
| 20260505015112 | 70 | 122 | 1.0 | 5.0 | 0.00 | 0.00 | 0.00 | 35 | 1006.6 |
| 20260505015009 | 70 | 116 | 1.0 | 5.0 | 0.00 | 0.00 | 0.00 | 35 | 1006.6 |
| 20260505014902 | 70 | 136 | 1.0 | 5.0 | 0.00 | 0.00 | 0.00 | 34 | 1006.6 |
| 20260505014802 | 70 | 123 | 1.0 | 5.0 | 0.00 | 0.00 | 0.00 | 34 | 1006.6 |
| 20260505014702 | 70 | 167 | 1.0 | 5.0 | 0.00 | 0.00 | 0.00 | 34 | 1006.6 |
| 20260505014602 | 70 | 124 | 1.0 | 5.0 | 0.00 | 0.00 | 0.00 | 34 | 1006.6 |
| 20260505014502 | 70 | 107 | 1.0 | 5.0 | 0.00 | 0.00 | 0.00 | 34 | 1006.6 |
| 20260505014401 | 71 | 134 | 1.0 | 7.0 | 0.00 | 0.00 | 0.00 | 34 | 1006.6 |
| 20260505014301 | 71 | 175 | 1.0 | 7.0 | 0.00 | 0.00 | 0.00 | 34 | 1006.5 |
| 20260505014202 | 71 | 166 | 1.0 | 7.0 | 0.00 | 0.00 | 0.00 | 34 | 1006.6 |
| 20260505014103 | 71 | 166 | 1.0 | 7.0 | 0.00 | 0.00 | 0.00 | 34 | 1006.5 |
| 20260505013802 | 71 | 161 | 1.0 | 7.0 | 0.00 | 0.00 | 0.00 | 33 | 1006.6 |
| 20260505013703 | 71 | 133 | 1.0 | 7.0 | 0.00 | 0.00 | 0.00 | 33 | 1006.7 |
| 20260505013603 | 71 | 210 | 1.0 | 7.0 | 0.00 | 0.00 | 0.00 | 33 | 1006.6 |
| 20260505013302 | 71 | 160 | 1.0 | 4.0 | 0.00 | 0.00 | 0.00 | 33 | 1006.6 |
| 20260505013103 | 71 | 60 | 1.0 | 4.0 | 0.00 | 0.00 | 0.00 | 32 | 1006.5 |
| 20260505013005 | 71 | 115 | 1.0 | 4.0 | 0.00 | 0.00 | 0.00 | 32 | 1006.6 |
| 20260505012903 | 71 | 141 | 1.0 | 4.0 | 0.00 | 0.00 | 0.00 | 32 | 1006.6 |
| 20260505012803 | 71 | 219 | 1.0 | 4.0 | 0.00 | 0.00 | 0.00 | 32 | 1006.5 |
| 20260505012503 | 72 | 142 | 1.0 | 4.0 | 0.00 | 0.00 | 0.00 | 31 | 1006.6 |
| 20260505012404 | 72 | 147 | 2.0 | 6.0 | 0.00 | 0.00 | 0.00 | 31 | 1006.5 |
| 20260505012304 | 72 | 84 | 2.0 | 7.0 | 0.00 | 0.00 | 0.00 | 31 | 1006.6 |
| 20260505012203 | 72 | 67 | 2.0 | 7.0 | 0.00 | 0.00 | 0.00 | 31 | 1006.6 |
| 20260505012101 | 72 | 164 | 2.0 | 7.0 | 0.00 | 0.00 | 0.00 | 31 | 1006.6 |
| 20260505012051 | 72 | 120 | 2.0 | 7.0 | 0.00 | 0.00 | 0.00 | 31 | 1006.6 |
| 20260505011936 | 72 | 110 | 2.0 | 7.0 | 0.00 | 0.00 | 0.00 | 31 | 1006.7 |
| 20260505011827 | 72 | 142 | 2.0 | 7.0 | 0.00 | 0.00 | 0.00 | 31 | 1006.6 |
| 20260505011438 | 73 | 93 | 2.0 | 7.0 | 0.00 | 0.00 | 0.00 | 30 | 1006.7 |
| 20260505011329 | 73 | 138 | 2.0 | 7.0 | 0.00 | 0.00 | 0.00 | 30 | 1006.7 |
| 20260505011222 | 73 | 161 | 1.0 | 7.0 | 0.00 | 0.00 | 0.00 | 30 | 1006.7 |
| 20260505011113 | 73 | 75 | 2.0 | 7.0 | 0.00 | 0.00 | 0.00 | 30 | 1006.8 |
| 20260505011015 | 73 | 70 | 2.0 | 7.0 | 0.00 | 0.00 | 0.00 | 31 | 1006.8 |
| 20260505010901 | 73 | 159 | 2.0 | 7.0 | 0.00 | 0.00 | 0.00 | 30 | 1006.7 |
| 20260505010800 | 73 | 158 | 2.0 | 8.0 | 0.00 | 0.00 | 0.00 | 31 | 1006.8 |
| 20260505010505 | 73 | 102 | 2.0 | 8.0 | 0.00 | 0.00 | 0.00 | 32 | 1006.8 |
| 20260505010304 | 73 | 146 | 2.0 | 8.0 | 0.00 | 0.00 | 0.00 | 31 | 1006.9 |
| 20260505010109 | 73 | 117 | 2.0 | 8.0 | 0.00 | 0.00 | 0.00 | 30 | 1006.8 |
| 20260505010011 | 74 | 129 | 2.0 | 7.0 | 0.00 | 0.00 | 0.00 | 30 | 1006.8 |
| 20260505005904 | 74 | 247 | 2.0 | 6.0 | 0.00 | 0.00 | 0.00 | 30 | 1006.9 |
| 20260505005803 | 74 | 132 | 2.0 | 6.0 | 0.00 | 0.00 | 0.00 | 31 | 1006.8 |
| 20260505005705 | 74 | 161 | 1.0 | 6.0 | 0.00 | 0.00 | 0.00 | 30 | 1006.8 |
| 20260505005503 | 74 | 145 | 1.0 | 6.0 | 0.00 | 0.00 | 0.00 | 29 | 1006.8 |
| 20260505005404 | 74 | 135 | 1.0 | 4.0 | 0.00 | 0.00 | 0.00 | 30 | 1006.8 |
| 20260505005304 | 74 | 107 | 1.0 | 4.0 | 0.00 | 0.00 | 0.00 | 30 | 1006.8 |
| 20260505005204 | 74 | 101 | 1.0 | 4.0 | 0.00 | 0.00 | 0.00 | 30 | 1006.9 |
| 20260505005109 | 74 | 82 | 2.0 | 4.0 | 0.00 | 0.00 | 0.00 | 30 | 1006.9 |
| 20260505005013 | 74 | 54 | 2.0 | 4.0 | 0.00 | 0.00 | 0.00 | 29 | 1006.9 |
| 20260505004903 | 74 | 151 | 2.0 | 6.0 | 0.00 | 0.00 | 0.00 | 29 | 1006.9 |
| 20260505004804 | 74 | 246 | 2.0 | 6.0 | 0.00 | 0.00 | 0.00 | 30 | 1006.9 |
| 20260505004704 | 74 | 157 | 2.0 | 6.0 | 0.00 | 0.00 | 0.00 | 30 | 1007.0 |
| 20260505004604 | 74 | 69 | 2.0 | 6.0 | 0.00 | 0.00 | 0.00 | 30 | 1007.0 |
| 20260505004504 | 74 | 71 | 2.0 | 6.0 | 0.00 | 0.00 | 0.00 | 31 | 1007.0 |
| 20260505004403 | 74 | 143 | 2.0 | 6.0 | 0.00 | 0.00 | 0.00 | 30 | 1007.0 |
| 20260505004204 | 74 | 137 | 2.0 | 6.0 | 0.00 | 0.00 | 0.00 | 29 | 1007.0 |
| 20260505003904 | 74 | 103 | 2.0 | 6.0 | 0.00 | 0.00 | 0.00 | 30 | 1007.1 |
| 20260505003704 | 74 | 98 | 2.0 | 7.0 | 0.00 | 0.00 | 0.00 | 30 | 1007.0 |
| 20260505003504 | 74 | 168 | 2.0 | 7.0 | 0.00 | 0.00 | 0.00 | 32 | 1007.0 |
| 20260505003404 | 74 | 102 | 2.0 | 7.0 | 0.00 | 0.00 | 0.00 | 31 | 1007.0 |
| 20260505003204 | 74 | 178 | 2.0 | 8.0 | 0.00 | 0.00 | 0.00 | 31 | 1007.1 |
| 20260505003103 | 73 | 157 | 2.0 | 8.0 | 0.00 | 0.00 | 0.00 | 31 | 1007.0 |
| 20260505003009 | 73 | 158 | 2.0 | 8.0 | 0.00 | 0.00 | 0.00 | 31 | 1007.1 |
| 20260505002704 | 73 | 15 | 2.0 | 8.0 | 0.00 | 0.00 | 0.00 | 32 | 1007.1 |
| 20260505002603 | 73 | 92 | 2.0 | 8.0 | 0.00 | 0.00 | 0.00 | 31 | 1007.0 |
| 20260505002504 | 73 | 96 | 2.0 | 8.0 | 0.00 | 0.00 | 0.00 | 31 | 1007.0 |
| 20260505002404 | 73 | 141 | 3.0 | 8.0 | 0.00 | 0.00 | 0.00 | 31 | 1007.0 |
| 20260505002304 | 73 | 105 | 3.0 | 8.0 | 0.00 | 0.00 | 0.00 | 31 | 1007.0 |
| 20260505002204 | 73 | 136 | 3.0 | 8.0 | 0.00 | 0.00 | 0.00 | 31 | 1007.1 |
| 20260505002104 | 73 | 167 | 3.0 | 8.0 | 0.00 | 0.00 | 0.00 | 32 | 1007.0 |
| 20260505002010 | 73 | 126 | 3.0 | 8.0 | 0.00 | 0.00 | 0.00 | 33 | 1007.0 |
| 20260505001904 | 73 | 170 | 2.0 | 8.0 | 0.00 | 0.00 | 0.00 | 32 | 1007.1 |
| 20260505001804 | 73 | 250 | 2.0 | 8.0 | 0.00 | 0.00 | 0.00 | 32 | 1007.1 |
| 20260505001703 | 73 | 211 | 3.0 | 8.0 | 0.00 | 0.00 | 0.00 | 32 | 1007.0 |
| 20260505001604 | 73 | 144 | 3.0 | 8.0 | 0.00 | 0.00 | 0.00 | 32 | 1007.0 |
| 20260505001504 | 73 | 101 | 2.0 | 7.0 | 0.00 | 0.00 | 0.00 | 32 | 1007.1 |
| 20260505001404 | 73 | 41 | 2.0 | 7.0 | 0.00 | 0.00 | 0.00 | 32 | 1007.0 |
| 20260505001304 | 73 | 81 | 2.0 | 7.0 | 0.00 | 0.00 | 0.00 | 32 | 1007.1 |
| 20260505001203 | 73 | 167 | 3.0 | 7.0 | 0.00 | 0.00 | 0.00 | 32 | 1007.0 |
| 20260505001109 | 73 | 103 | 3.0 | 7.0 | 0.00 | 0.00 | 0.00 | 33 | 1007.1 |
| 20260505001012 | 73 | 213 | 3.0 | 7.0 | 0.00 | 0.00 | 0.00 | 32 | 1007.1 |
| 20260505000804 | 73 | 204 | 2.0 | 7.0 | 0.00 | 0.00 | 0.00 | 32 | 1007.2 |
| 20260505000704 | 73 | 26 | 3.0 | 7.0 | 0.00 | 0.00 | 0.00 | 31 | 1007.1 |
| 20260505000604 | 73 | 78 | 3.0 | 9.0 | 0.00 | 0.00 | 0.00 | 31 | 1007.2 |
| 20260505000503 | 73 | 217 | 3.0 | 13.0 | 0.00 | 0.00 | 0.00 | 31 | 1007.2 |
| 20260505000405 | 73 | 127 | 3.0 | 13.0 | 0.00 | 0.00 | 0.00 | 31 | 1007.2 |
| 20260505000304 | 73 | 134 | 3.0 | 13.0 | 0.00 | 0.00 | 0.00 | 32 | 1007.2 |
| 20260505000204 | 73 | 154 | 3.0 | 13.0 | 0.00 | 0.00 | 0.00 | 33 | 1007.2 |
| 20260505000104 | 73 | 105 | 3.0 | 13.0 | 0.00 | 0.00 | 0.00 | 32 | 1007.2 |
| 20260505000006 | 74 | 192 | 3.0 | 13.0 | 0.00 | 0.00 | 0.00 | 32 | 1007.2 |
| 20260504235803 | 74 | 157 | 4.0 | 13.0 | 0.00 | 0.00 | 0.00 | 30 | 1007.2 |
| 20260504235703 | 74 | 150 | 4.0 | 13.0 | 0.00 | 0.00 | 0.00 | 29 | 1007.3 |
| 20260504235604 | 74 | 173 | 3.0 | 11.0 | 0.00 | 0.00 | 0.00 | 30 | 1007.2 |
| 20260504235404 | 74 | 146 | 4.0 | 10.0 | 0.00 | 0.00 | 0.00 | 30 | 1007.4 |
| 20260504235304 | 74 | 130 | 4.0 | 10.0 | 0.00 | 0.00 | 0.00 | 29 | 1007.3 |
| 20260504235204 | 74 | 198 | 4.0 | 11.0 | 0.00 | 0.00 | 0.00 | 29 | 1007.4 |
| 20260504235104 | 74 | 243 | 4.0 | 11.0 | 0.00 | 0.00 | 0.00 | 29 | 1007.3 |
| 20260504235007 | 74 | 188 | 4.0 | 11.0 | 0.00 | 0.00 | 0.00 | 29 | 1007.3 |
| 20260504234804 | 74 | 112 | 4.0 | 11.0 | 0.00 | 0.00 | 0.00 | 30 | 1007.3 |
| 20260504234604 | 74 | 304 | 5.0 | 11.0 | 0.00 | 0.00 | 0.00 | 30 | 1007.3 |
| 20260504234504 | 74 | 124 | 4.0 | 11.0 | 0.00 | 0.00 | 0.00 | 30 | 1007.3 |
| 20260504234403 | 74 | 184 | 4.0 | 11.0 | 0.00 | 0.00 | 0.00 | 30 | 1007.4 |
| 20260504234304 | 74 | 286 | 4.0 | 11.0 | 0.00 | 0.00 | 0.00 | 30 | 1007.3 |
| 20260504234204 | 74 | 160 | 4.0 | 11.0 | 0.00 | 0.00 | 0.00 | 30 | 1007.3 |
| 20260504234010 | 74 | 219 | 4.0 | 11.0 | 0.00 | 0.00 | 0.00 | 30 | 1007.3 |
| 20260504233804 | 75 | 157 | 4.0 | 10.0 | 0.00 | 0.00 | 0.00 | 29 | 1007.3 |
| 20260504233604 | 75 | 144 | 3.0 | 10.0 | 0.00 | 0.00 | 0.00 | 28 | 1007.3 |
| 20260504233405 | 75 | 218 | 3.0 | 10.0 | 0.00 | 0.00 | 0.00 | 28 | 1007.4 |
| 20260504233304 | 75 | 189 | 3.0 | 6.0 | 0.00 | 0.00 | 0.00 | 29 | 1007.3 |
| 20260504233108 | 74 | 155 | 3.0 | 10.0 | 0.00 | 0.00 | 0.00 | 29 | 1007.4 |
| 20260504233025 | 74 | 155 | 3.0 | 10.0 | 0.00 | 0.00 | 0.00 | 28 | 1007.3 |
| 20260504232911 | 74 | 236 | 3.0 | 10.0 | 0.00 | 0.00 | 0.00 | 28 | 1007.2 |
| 20260504232503 | 74 | 224 | 2.0 | 10.0 | 0.00 | 0.00 | 0.00 | 30 | 1007.3 |
| 20260504232445 | 74 | 248 | 2.0 | 10.0 | 0.00 | 0.00 | 0.00 | 29 | 1007.2 |
| 20260504232233 | 74 | 238 | 2.0 | 7.0 | 0.00 | 0.00 | 0.00 | 29 | 1007.3 |
| 20260504232028 | 74 | 158 | 2.0 | 8.0 | 0.00 | 0.00 | 0.00 | 29 | 1007.3 |
| 20260504231915 | 74 | 213 | 2.0 | 8.0 | 0.00 | 0.00 | 0.00 | 30 | 1007.4 |
| 20260504231809 | 74 | 252 | 2.0 | 8.0 | 0.00 | 0.00 | 0.00 | 29 | 1007.3 |
| 20260504231703 | 74 | 246 | 3.0 | 8.0 | 0.00 | 0.00 | 0.00 | 29 | 1007.2 |
| 20260504231603 | 74 | 148 | 3.0 | 8.0 | 0.00 | 0.00 | 0.00 | 28 | 1007.3 |
| 20260504231302 | 74 | 166 | 3.0 | 8.0 | 0.00 | 0.00 | 0.00 | 27 | 1007.3 |
| 20260504231203 | 74 | 126 | 3.0 | 8.0 | 0.00 | 0.00 | 0.00 | 27 | 1007.3 |
| 20260504231119 | 74 | 290 | 3.0 | 8.0 | 0.00 | 0.00 | 0.00 | 28 | 1007.3 |
| 20260504231002 | 74 | 203 | 3.0 | 8.0 | 0.00 | 0.00 | 0.00 | 28 | 1007.2 |
| 20260504230902 | 74 | 146 | 3.0 | 8.0 | 0.00 | 0.00 | 0.00 | 27 | 1007.3 |
| 20260504230803 | 75 | 171 | 3.0 | 8.0 | 0.00 | 0.00 | 0.00 | 27 | 1007.3 |
| 20260504230702 | 75 | 173 | 2.0 | 8.0 | 0.00 | 0.00 | 0.00 | 28 | 1007.3 |
| 20260504230601 | 75 | 132 | 2.0 | 8.0 | 0.00 | 0.00 | 0.00 | 28 | 1007.4 |
| 20260504230503 | 74 | 158 | 2.0 | 8.0 | 0.00 | 0.00 | 0.00 | 29 | 1007.4 |
| 20260504230303 | 75 | 273 | 3.0 | 8.0 | 0.00 | 0.00 | 0.00 | 27 | 1007.3 |
| 20260504230212 | 75 | 143 | 3.0 | 8.0 | 0.00 | 0.00 | 0.00 | 27 | 1007.3 |
| 20260504230106 | 75 | 242 | 3.0 | 8.0 | 0.00 | 0.00 | 0.00 | 29 | 1007.4 |
| 20260504225909 | 75 | 240 | 3.0 | 8.0 | 0.00 | 0.00 | 0.00 | 29 | 1007.3 |
| 20260504225804 | 75 | 141 | 3.0 | 11.0 | 0.00 | 0.00 | 0.00 | 28 | 1007.4 |
| 20260504225704 | 75 | 163 | 3.0 | 11.0 | 0.00 | 0.00 | 0.00 | 30 | 1007.4 |
| 20260504225503 | 74 | 177 | 4.0 | 11.0 | 0.00 | 0.00 | 0.00 | 29 | 1007.4 |
| 20260504225403 | 74 | 196 | 4.0 | 11.0 | 0.00 | 0.00 | 0.00 | 30 | 1007.4 |
| 20260504225304 | 74 | 106 | 4.0 | 11.0 | 0.00 | 0.00 | 0.00 | 29 | 1007.4 |
| 20260504225204 | 74 | 163 | 4.0 | 11.0 | 0.00 | 0.00 | 0.00 | 29 | 1007.4 |
| 20260504225104 | 75 | 162 | 4.0 | 11.0 | 0.00 | 0.00 | 0.00 | 29 | 1007.4 |
| 20260504225004 | 75 | 143 | 4.0 | 11.0 | 0.00 | 0.00 | 0.00 | 28 | 1007.4 |
| 20260504224903 | 75 | 124 | 4.0 | 9.0 | 0.00 | 0.00 | 0.00 | 30 | 1007.4 |
| 20260504224803 | 75 | 221 | 3.0 | 9.0 | 0.00 | 0.00 | 0.00 | 29 | 1007.2 |
| 20260504224704 | 75 | 214 | 4.0 | 9.0 | 0.00 | 0.00 | 0.00 | 30 | 1007.3 |
| 20260504224603 | 75 | 213 | 4.0 | 8.0 | 0.00 | 0.00 | 0.00 | 30 | 1007.4 |
| 20260504224504 | 75 | 174 | 4.0 | 9.0 | 0.00 | 0.00 | 0.00 | 30 | 1007.3 |
| 20260504224403 | 75 | 178 | 4.0 | 8.0 | 0.00 | 0.00 | 0.00 | 30 | 1007.3 |
| 20260504224303 | 75 | 202 | 4.0 | 11.0 | 0.00 | 0.00 | 0.00 | 30 | 1007.4 |
| 20260504224204 | 75 | 246 | 4.0 | 11.0 | 0.00 | 0.00 | 0.00 | 30 | 1007.4 |
| 20260504224103 | 75 | 113 | 4.0 | 11.0 | 0.00 | 0.00 | 0.00 | 31 | 1007.4 |
| 20260504224004 | 75 | 164 | 4.0 | 11.0 | 0.00 | 0.00 | 0.00 | 31 | 1007.3 |
| 20260504223909 | 75 | 175 | 4.0 | 11.0 | 0.00 | 0.00 | 0.00 | 31 | 1007.3 |
| 20260504223803 | 75 | 143 | 4.0 | 11.0 | 0.00 | 0.00 | 0.00 | 30 | 1007.3 |
| 20260504223704 | 75 | 138 | 4.0 | 11.0 | 0.00 | 0.00 | 0.00 | 31 | 1007.3 |
| 20260504223603 | 74 | 190 | 4.0 | 11.0 | 0.00 | 0.00 | 0.00 | 31 | 1007.3 |
| 20260504223503 | 74 | 147 | 4.0 | 11.0 | 0.00 | 0.00 | 0.00 | 30 | 1007.4 |
| 20260504223405 | 74 | 137 | 4.0 | 11.0 | 0.00 | 0.00 | 0.00 | 32 | 1007.3 |
| 20260504223204 | 74 | 196 | 4.0 | 11.0 | 0.00 | 0.00 | 0.00 | 31 | 1007.4 |
| 20260504223104 | 74 | 211 | 4.0 | 12.0 | 0.00 | 0.00 | 0.00 | 31 | 1007.3 |
| 20260504222904 | 74 | 189 | 4.0 | 10.0 | 0.00 | 0.00 | 0.00 | 32 | 1007.3 |
| 20260504222804 | 74 | 224 | 5.0 | 14.0 | 0.00 | 0.00 | 0.00 | 32 | 1007.2 |
| 20260504222705 | 74 | 244 | 5.0 | 14.0 | 0.00 | 0.00 | 0.00 | 32 | 1007.3 |
| 20260504222604 | 74 | 197 | 5.0 | 12.0 | 0.00 | 0.00 | 0.00 | 32 | 1007.4 |
| 20260504222505 | 74 | 169 | 5.0 | 12.0 | 0.00 | 0.00 | 0.00 | 32 | 1007.2 |
| 20260504222404 | 74 | 152 | 5.0 | 12.0 | 0.00 | 0.00 | 0.00 | 32 | 1007.3 |
| 20260504222305 | 74 | 181 | 5.0 | 12.0 | 0.00 | 0.00 | 0.00 | 32 | 1007.2 |
| 20260504222103 | 74 | 176 | 6.0 | 12.0 | 0.00 | 0.00 | 0.00 | 31 | 1007.3 |
| 20260504222004 | 74 | 138 | 6.0 | 12.0 | 0.00 | 0.00 | 0.00 | 30 | 1007.2 |
| 20260504221903 | 74 | 249 | 6.0 | 16.0 | 0.00 | 0.00 | 0.00 | 29 | 1007.3 |
| 20260504221704 | 75 | 265 | 5.0 | 16.0 | 0.00 | 0.00 | 0.00 | 31 | 1007.4 |
| 20260504221603 | 75 | 153 | 5.0 | 16.0 | 0.00 | 0.00 | 0.00 | 30 | 1007.3 |
| 20260504221404 | 75 | 131 | 5.0 | 16.0 | 0.00 | 0.00 | 0.00 | 31 | 1007.3 |
| 20260504221304 | 75 | 218 | 5.0 | 16.0 | 0.00 | 0.00 | 0.00 | 30 | 1007.4 |
| 20260504221205 | 76 | 241 | 4.0 | 16.0 | 0.00 | 0.00 | 0.00 | 29 | 1007.4 |
| 20260504221105 | 76 | 140 | 4.0 | 16.0 | 0.00 | 0.00 | 0.00 | 28 | 1007.4 |
| 20260504221006 | 76 | 150 | 3.0 | 10.0 | 0.00 | 0.00 | 0.00 | 27 | 1007.2 |
| 20260504220905 | 76 | 251 | 3.0 | 10.0 | 0.00 | 0.00 | 0.00 | 25 | 1007.4 |
| 20260504220804 | 76 | 142 | 3.0 | 10.0 | 0.00 | 0.00 | 0.00 | 24 | 1007.2 |
| 20260504220705 | 76 | 134 | 3.0 | 10.0 | 0.00 | 0.00 | 0.00 | 25 | 1007.4 |
| 20260504220605 | 76 | 194 | 3.0 | 8.0 | 0.00 | 0.00 | 0.00 | 25 | 1007.3 |
| 20260504220504 | 76 | 166 | 3.0 | 8.0 | 0.00 | 0.00 | 0.00 | 24 | 1007.3 |
| 20260504220406 | 76 | 143 | 3.0 | 8.0 | 0.00 | 0.00 | 0.00 | 23 | 1007.2 |
| 20260504220203 | 76 | 48 | 3.0 | 8.0 | 0.00 | 0.00 | 0.00 | 25 | 1007.4 |
| 20260504220007 | 76 | 267 | 3.0 | 8.0 | 0.00 | 0.00 | 0.00 | 25 | 1007.4 |
| 20260504215903 | 76 | 161 | 3.0 | 9.0 | 0.00 | 0.00 | 0.00 | 24 | 1007.4 |
| 20260504215804 | 76 | 184 | 3.0 | 9.0 | 0.00 | 0.00 | 0.00 | 25 | 1007.4 |
| 20260504215704 | 76 | 136 | 3.0 | 9.0 | 0.00 | 0.00 | 0.00 | 24 | 1007.4 |
| 20260504215504 | 76 | 250 | 2.0 | 9.0 | 0.00 | 0.00 | 0.00 | 24 | 1007.5 |
| 20260504215404 | 76 | 237 | 2.0 | 9.0 | 0.00 | 0.00 | 0.00 | 24 | 1007.5 |
| 20260504215305 | 76 | 219 | 2.0 | 9.0 | 0.00 | 0.00 | 0.00 | 25 | 1007.5 |
| 20260504215204 | 76 | 152 | 2.0 | 9.0 | 0.00 | 0.00 | 0.00 | 26 | 1007.5 |
| 20260504215104 | 76 | 165 | 2.0 | 7.0 | 0.00 | 0.00 | 0.00 | 26 | 1007.5 |
| 20260504215005 | 76 | 263 | 2.0 | 7.0 | 0.00 | 0.00 | 0.00 | 25 | 1007.6 |
| 20260504214803 | 76 | 225 | 2.0 | 7.0 | 0.00 | 0.00 | 0.00 | 25 | 1007.7 |
| 20260504214703 | 76 | 128 | 2.0 | 7.0 | 0.00 | 0.00 | 0.00 | 27 | 1007.7 |
| 20260504214603 | 76 | 236 | 2.0 | 7.0 | 0.00 | 0.00 | 0.00 | 25 | 1007.7 |
| 20260504214504 | 76 | 263 | 2.0 | 7.0 | 0.00 | 0.00 | 0.00 | 25 | 1007.7 |
| 20260504214403 | 76 | 177 | 2.0 | 7.0 | 0.00 | 0.00 | 0.00 | 27 | 1007.7 |
| 20260504214304 | 76 | 237 | 2.0 | 7.0 | 0.00 | 0.00 | 0.00 | 25 | 1007.6 |
| 20260504214204 | 76 | 211 | 2.0 | 8.0 | 0.00 | 0.00 | 0.00 | 27 | 1007.7 |
| 20260504214005 | 76 | 316 | 2.0 | 5.0 | 0.00 | 0.00 | 0.00 | 25 | 1007.7 |
| 20260504213904 | 76 | 151 | 2.0 | 5.0 | 0.00 | 0.00 | 0.00 | 25 | 1007.8 |
| 20260504213803 | 76 | 244 | 2.0 | 6.0 | 0.00 | 0.00 | 0.00 | 25 | 1007.8 |
| 20260504213704 | 77 | 163 | 2.0 | 5.0 | 0.00 | 0.00 | 0.00 | 25 | 1007.8 |
| 20260504213504 | 77 | 234 | 2.0 | 5.0 | 0.00 | 0.00 | 0.00 | 26 | 1007.9 |
| 20260504213403 | 77 | 122 | 2.0 | 5.0 | 0.00 | 0.00 | 0.00 | 25 | 1007.9 |
| 20260504213303 | 77 | 178 | 2.0 | 5.0 | 0.00 | 0.00 | 0.00 | 24 | 1007.9 |
| 20260504213204 | 77 | 75 | 2.0 | 5.0 | 0.00 | 0.00 | 0.00 | 24 | 1007.9 |
| 20260504213006 | 77 | 256 | 3.0 | 6.0 | 0.00 | 0.00 | 0.00 | 26 | 1008.0 |
| 20260504212904 | 77 | 148 | 2.0 | 6.0 | 0.00 | 0.00 | 0.00 | 26 | 1008.0 |
| 20260504212803 | 77 | 126 | 2.0 | 6.0 | 0.00 | 0.00 | 0.00 | 27 | 1008.0 |
| 20260504212603 | 77 | 238 | 2.0 | 6.0 | 0.00 | 0.00 | 0.00 | 27 | 1008.0 |
| 20260504212504 | 77 | 30 | 2.0 | 6.0 | 0.00 | 0.00 | 0.00 | 26 | 1008.0 |
| 20260504212404 | 77 | 229 | 2.0 | 7.0 | 0.00 | 0.00 | 0.00 | 25 | 1008.1 |
| 20260504212304 | 77 | 131 | 2.0 | 7.0 | 0.00 | 0.00 | 0.00 | 26 | 1008.0 |
| 20260504212204 | 77 | 179 | 2.0 | 7.0 | 0.00 | 0.00 | 0.00 | 25 | 1008.0 |
| 20260504212007 | 77 | 259 | 2.0 | 7.0 | 0.00 | 0.00 | 0.00 | 26 | 1008.0 |
| 20260504211905 | 77 | 186 | 2.0 | 7.0 | 0.00 | 0.00 | 0.00 | 25 | 1008.0 |
| 20260504211805 | 77 | 273 | 2.0 | 7.0 | 0.00 | 0.00 | 0.00 | 25 | 1008.1 |
| 20260504211605 | 77 | 214 | 2.0 | 7.0 | 0.00 | 0.00 | 0.00 | 25 | 1008.1 |
| 20260504211505 | 77 | 128 | 2.0 | 7.0 | 0.00 | 0.00 | 0.00 | 26 | 1008.1 |
| 20260504211404 | 77 | 177 | 2.0 | 7.0 | 0.00 | 0.00 | 0.00 | 25 | 1008.1 |
| 20260504211303 | 77 | 267 | 2.0 | 7.0 | 0.00 | 0.00 | 0.00 | 25 | 1008.1 |
| 20260504211203 | 77 | 254 | 2.0 | 7.0 | 0.00 | 0.00 | 0.00 | 27 | 1008.1 |
| 20260504211104 | 76 | 153 | 2.0 | 7.0 | 0.00 | 0.00 | 0.00 | 27 | 1008.1 |
| 20260504211004 | 76 | 229 | 2.0 | 7.0 | 0.00 | 0.00 | 0.00 | 27 | 1008.1 |
| 20260504210803 | 76 | 238 | 2.0 | 7.0 | 0.00 | 0.00 | 0.00 | 27 | 1008.1 |
| 20260504210704 | 76 | 261 | 2.0 | 8.0 | 0.00 | 0.00 | 0.00 | 27 | 1008.1 |
| 20260504210604 | 76 | 163 | 2.0 | 6.0 | 0.00 | 0.00 | 0.00 | 27 | 1008.2 |
| 20260504210504 | 76 | 227 | 2.0 | 6.0 | 0.00 | 0.00 | 0.00 | 24 | 1008.1 |
| 20260504210007 | 76 | 287 | 3.0 | 8.0 | 0.00 | 0.00 | 0.00 | 26 | 1008.2 |
| 20260504205904 | 76 | 238 | 3.0 | 8.0 | 0.00 | 0.00 | 0.00 | 27 | 1008.1 |
| 20260504205705 | 76 | 248 | 2.0 | 8.0 | 0.00 | 0.00 | 0.00 | 25 | 1008.1 |
| 20260504205505 | 77 | 224 | 2.0 | 8.0 | 0.00 | 0.00 | 0.00 | 25 | 1008.2 |
| 20260504205403 | 77 | 282 | 2.0 | 8.0 | 0.00 | 0.00 | 0.00 | 26 | 1008.3 |
| 20260504205304 | 77 | 263 | 2.0 | 7.0 | 0.00 | 0.00 | 0.00 | 27 | 1008.3 |
| 20260504205204 | 77 | 143 | 2.0 | 7.0 | 0.00 | 0.00 | 0.00 | 27 | 1008.3 |
| 20260504205103 | 77 | 257 | 2.0 | 7.0 | 0.00 | 0.00 | 0.00 | 26 | 1008.2 |
| 20260504205006 | 77 | 86 | 2.0 | 7.0 | 0.00 | 0.00 | 0.00 | 25 | 1008.1 |
| 20260504204804 | 76 | 244 | 2.0 | 7.0 | 0.00 | 0.00 | 0.00 | 26 | 1008.2 |
| 20260504204703 | 76 | 201 | 2.0 | 6.0 | 0.00 | 0.00 | 0.00 | 25 | 1008.3 |
| 20260504204603 | 76 | 183 | 3.0 | 6.0 | 0.00 | 0.00 | 0.00 | 25 | 1008.3 |
| 20260504204505 | 76 | 153 | 2.0 | 6.0 | 0.00 | 0.00 | 0.00 | 26 | 1008.3 |
| 20260504204404 | 77 | 234 | 2.0 | 8.0 | 0.00 | 0.00 | 0.00 | 25 | 1008.3 |
| 20260504204303 | 76 | 253 | 3.0 | 8.0 | 0.00 | 0.00 | 0.00 | 28 | 1008.3 |
| 20260504204203 | 76 | 211 | 3.0 | 8.0 | 0.00 | 0.00 | 0.00 | 28 | 1008.3 |
| 20260504204104 | 76 | 265 | 2.0 | 8.0 | 0.00 | 0.00 | 0.00 | 27 | 1008.4 |
| 20260504204005 | 76 | 137 | 2.0 | 8.0 | 0.00 | 0.00 | 0.00 | 27 | 1008.3 |
| 20260504203803 | 76 | 240 | 2.0 | 8.0 | 0.00 | 0.00 | 0.00 | 27 | 1008.4 |
| 20260504203604 | 76 | 257 | 2.0 | 8.0 | 0.00 | 0.00 | 0.00 | 29 | 1008.4 |
| 20260504203504 | 76 | 245 | 2.0 | 8.0 | 0.00 | 0.00 | 0.00 | 26 | 1008.4 |
| 20260504203403 | 76 | 131 | 2.0 | 8.0 | 0.00 | 0.00 | 0.00 | 26 | 1008.4 |
| 20260504203304 | 76 | 217 | 2.0 | 8.0 | 0.00 | 0.00 | 0.00 | 27 | 1008.3 |
| 20260504203203 | 76 | 275 | 2.0 | 5.0 | 0.00 | 0.00 | 0.00 | 26 | 1008.4 |
| 20260504203005 | 77 | 17 | 2.0 | 7.0 | 0.00 | 0.00 | 0.00 | 24 | 1008.4 |
| 20260504202904 | 77 | 333 | 2.0 | 7.0 | 0.00 | 0.00 | 0.00 | 25 | 1008.4 |
| 20260504202803 | 77 | 138 | 2.0 | 7.0 | 0.00 | 0.00 | 0.00 | 26 | 1008.4 |
| 20260504202704 | 77 | 150 | 2.0 | 7.0 | 0.00 | 0.00 | 0.00 | 26 | 1008.5 |
| 20260504202604 | 77 | 93 | 2.0 | 7.0 | 0.00 | 0.00 | 0.00 | 26 | 1008.4 |
| 20260504202504 | 76 | 283 | 2.0 | 7.0 | 0.00 | 0.00 | 0.00 | 27 | 1008.5 |
| 20260504202404 | 76 | 142 | 2.0 | 7.0 | 0.00 | 0.00 | 0.00 | 28 | 1008.5 |
| 20260504202305 | 76 | 211 | 2.0 | 7.0 | 0.00 | 0.00 | 0.00 | 28 | 1008.5 |
| 20260504202205 | 76 | 343 | 2.0 | 7.0 | 0.00 | 0.00 | 0.00 | 27 | 1008.5 |
| 20260504202104 | 76 | 241 | 2.0 | 7.0 | 0.00 | 0.00 | 0.00 | 25 | 1008.5 |
| 20260504202006 | 76 | 316 | 2.0 | 7.0 | 0.00 | 0.00 | 0.00 | 28 | 1008.5 |
| 20260504201804 | 76 | 225 | 2.0 | 7.0 | 0.00 | 0.00 | 0.00 | 26 | 1008.5 |
| 20260504201704 | 76 | 265 | 2.0 | 7.0 | 0.00 | 0.00 | 0.00 | 28 | 1008.5 |
| 20260504201604 | 76 | 304 | 2.0 | 7.0 | 0.00 | 0.00 | 0.00 | 27 | 1008.6 |
| 20260504201505 | 76 | 231 | 2.0 | 7.0 | 0.00 | 0.00 | 0.00 | 26 | 1008.5 |
| 20260504201403 | 76 | 229 | 2.0 | 7.0 | 0.00 | 0.00 | 0.00 | 25 | 1008.6 |
| 20260504201304 | 76 | 319 | 2.0 | 7.0 | 0.00 | 0.00 | 0.00 | 25 | 1008.6 |
| 20260504201203 | 76 | 304 | 2.0 | 7.0 | 0.00 | 0.00 | 0.00 | 27 | 1008.6 |
| 20260504201103 | 76 | 244 | 2.0 | 7.0 | 0.00 | 0.00 | 0.00 | 27 | 1008.6 |
| 20260504200903 | 76 | 216 | 2.0 | 7.0 | 0.00 | 0.00 | 0.00 | 26 | 1008.6 |
| 20260504200803 | 75 | 13 | 3.0 | 9.0 | 0.00 | 0.00 | 0.00 | 26 | 1008.7 |
| 20260504200703 | 75 | 343 | 3.0 | 9.0 | 0.00 | 0.00 | 0.00 | 26 | 1008.6 |
| 20260504200403 | 75 | 236 | 3.0 | 9.0 | 0.00 | 0.00 | 0.00 | 26 | 1008.7 |
| 20260504200303 | 75 | 246 | 3.0 | 9.0 | 0.00 | 0.00 | 0.00 | 25 | 1008.8 |
| 20260504200205 | 75 | 234 | 3.0 | 9.0 | 0.00 | 0.00 | 0.00 | 27 | 1008.8 |
| 20260504195903 | 76 | 242 | 2.0 | 6.0 | 0.00 | 0.00 | 0.00 | 25 | 1008.7 |
| 20260504195703 | 76 | 134 | 2.0 | 5.0 | 0.00 | 0.00 | 0.00 | 28 | 1008.7 |
| 20260504195604 | 76 | 227 | 3.0 | 9.0 | 0.00 | 0.00 | 0.00 | 30 | 1008.7 |
| 20260504195504 | 75 | 348 | 3.0 | 9.0 | 0.00 | 0.00 | 0.00 | 30 | 1008.8 |
| 20260504195403 | 75 | 269 | 3.0 | 9.0 | 0.00 | 0.00 | 0.00 | 27 | 1008.7 |
| 20260504195203 | 75 | 287 | 3.0 | 9.0 | 0.00 | 0.00 | 0.00 | 27 | 1008.7 |
| 20260504195104 | 75 | 130 | 3.0 | 9.0 | 0.00 | 0.00 | 0.00 | 27 | 1008.6 |
| 20260504195003 | 75 | 214 | 3.0 | 9.0 | 0.00 | 0.00 | 0.00 | 29 | 1008.7 |
| 20260504194603 | 76 | 199 | 2.0 | 9.0 | 0.00 | 0.00 | 0.00 | 29 | 1008.8 |
| 20260504194504 | 76 | 269 | 2.0 | 7.0 | 0.00 | 0.00 | 0.00 | 27 | 1008.7 |
| 20260504194403 | 76 | 232 | 2.0 | 7.0 | 0.00 | 0.00 | 0.00 | 28 | 1008.8 |
| 20260504194304 | 77 | 209 | 2.0 | 7.0 | 0.00 | 0.00 | 0.00 | 28 | 1008.8 |
| 20260504194204 | 77 | 261 | 2.0 | 4.0 | 0.00 | 0.00 | 0.00 | 31 | 1008.8 |
| 20260504194104 | 77 | 228 | 2.0 | 4.0 | 0.00 | 0.00 | 0.00 | 28 | 1008.8 |
| 20260504194005 | 77 | 134 | 2.0 | 5.0 | 0.00 | 0.00 | 0.00 | 29 | 1008.8 |
| 20260504193903 | 77 | 279 | 2.0 | 6.0 | 0.00 | 0.00 | 0.00 | 31 | 1008.9 |
| 20260504193804 | 76 | 280 | 2.0 | 6.0 | 0.00 | 0.00 | 0.00 | 30 | 1009.0 |
| 20260504193704 | 76 | 63 | 2.0 | 8.0 | 0.00 | 0.00 | 0.00 | 29 | 1008.9 |
| 20260504193605 | 76 | 134 | 2.0 | 8.0 | 0.00 | 0.00 | 0.00 | 29 | 1009.0 |
| 20260504193403 | 76 | 148 | 2.0 | 8.0 | 0.00 | 0.00 | 0.00 | 31 | 1009.0 |
| 20260504193204 | 76 | 256 | 2.0 | 8.0 | 0.00 | 0.00 | 0.00 | 31 | 1009.1 |
| 20260504193103 | 76 | 221 | 3.0 | 8.0 | 0.00 | 0.00 | 0.00 | 30 | 1009.0 |
| 20260504193005 | 76 | 205 | 3.0 | 8.0 | 0.00 | 0.00 | 0.00 | 32 | 1009.1 |
| 20260504192904 | 76 | 188 | 3.0 | 8.0 | 0.00 | 0.00 | 0.00 | 31 | 1009.1 |
| 20260504192803 | 76 | 283 | 2.0 | 7.0 | 0.00 | 0.00 | 0.00 | 31 | 1009.1 |
| 20260504192703 | 76 | 77 | 2.0 | 7.0 | 0.00 | 0.00 | 0.00 | 30 | 1009.1 |
| 20260504192504 | 75 | 152 | 2.0 | 7.0 | 0.00 | 0.00 | 0.00 | 33 | 1008.9 |
| 20260504192404 | 75 | 317 | 2.0 | 7.0 | 0.00 | 0.00 | 0.00 | 29 | 1009.0 |
| 20260504192304 | 75 | 343 | 2.0 | 7.0 | 0.00 | 0.00 | 0.00 | 30 | 1009.1 |
| 20260504192203 | 75 | 235 | 2.0 | 7.0 | 0.00 | 0.00 | 0.00 | 30 | 1009.2 |
| 20260504192103 | 76 | 252 | 2.0 | 6.0 | 0.00 | 0.00 | 0.00 | 30 | 1009.1 |
| 20260504191903 | 76 | 186 | 2.0 | 7.0 | 0.00 | 0.00 | 0.00 | 30 | 1009.1 |
| 20260504191803 | 76 | 300 | 2.0 | 7.0 | 0.00 | 0.00 | 0.00 | 30 | 1009.1 |
| 20260504191702 | 76 | 296 | 2.0 | 8.0 | 0.00 | 0.00 | 0.00 | 30 | 1009.1 |
| 20260504191604 | 76 | 244 | 2.0 | 7.0 | 0.00 | 0.00 | 0.00 | 29 | 1009.1 |
| 20260504191503 | 76 | 263 | 2.0 | 7.0 | 0.00 | 0.00 | 0.00 | 31 | 1009.1 |
| 20260504191303 | 76 | 184 | 3.0 | 7.0 | 0.00 | 0.00 | 0.00 | 30 | 1009.2 |
| 20260504191203 | 76 | 139 | 2.0 | 7.0 | 0.00 | 0.00 | 0.00 | 32 | 1009.1 |
| 20260504191103 | 76 | 142 | 2.0 | 7.0 | 0.00 | 0.00 | 0.00 | 30 | 1009.2 |
| 20260504191005 | 76 | 261 | 2.0 | 7.0 | 0.00 | 0.00 | 0.00 | 29 | 1009.1 |
| 20260504190703 | 76 | 248 | 2.0 | 6.0 | 0.00 | 0.00 | 0.00 | 32 | 1009.2 |
| 20260504190604 | 76 | 224 | 2.0 | 6.0 | 0.00 | 0.00 | 0.00 | 31 | 1009.1 |
| 20260504190504 | 75 | 158 | 2.0 | 6.0 | 0.00 | 0.00 | 0.00 | 32 | 1009.2 |
| 20260504190304 | 75 | 187 | 2.0 | 6.0 | 0.00 | 0.00 | 0.00 | 29 | 1009.2 |
| 20260504190204 | 75 | 281 | 2.0 | 6.0 | 0.00 | 0.00 | 0.00 | 31 | 1009.2 |
| 20260504190104 | 75 | 49 | 2.0 | 6.0 | 0.00 | 0.00 | 0.00 | 28 | 1009.2 |
| 20260504190005 | 76 | 47 | 2.0 | 6.0 | 0.00 | 0.00 | 0.00 | 29 | 1009.3 |
| 20260504185804 | 76 | 104 | 1.0 | 6.0 | 0.00 | 0.00 | 0.00 | 28 | 1009.3 |
| 20260504185704 | 76 | 245 | 1.0 | 6.0 | 0.00 | 0.00 | 0.00 | 29 | 1009.4 |
| 20260504185603 | 76 | 238 | 1.0 | 6.0 | 0.00 | 0.00 | 0.00 | 31 | 1009.4 |
| 20260504185503 | 76 | 247 | 1.0 | 6.0 | 0.00 | 0.00 | 0.00 | 27 | 1009.4 |
| 20260504185404 | 76 | 169 | 1.0 | 6.0 | 0.00 | 0.00 | 0.00 | 28 | 1009.4 |
| 20260504185304 | 76 | 142 | 1.0 | 6.0 | 0.00 | 0.00 | 0.00 | 29 | 1009.4 |
| 20260504185203 | 76 | 94 | 1.0 | 6.0 | 0.00 | 0.00 | 0.00 | 29 | 1009.4 |
| 20260504185004 | 76 | 154 | 1.0 | 5.0 | 0.00 | 0.00 | 0.00 | 31 | 1009.4 |
| 20260504184804 | 76 | 196 | 2.0 | 5.0 | 0.00 | 0.00 | 0.00 | 29 | 1009.4 |
| 20260504184703 | 76 | 273 | 1.0 | 5.0 | 0.00 | 0.00 | 0.00 | 29 | 1009.4 |
| 20260504184504 | 76 | 39 | 1.0 | 5.0 | 0.00 | 0.00 | 0.00 | 28 | 1009.4 |
| 20260504184406 | 76 | 63 | 1.0 | 5.0 | 0.00 | 0.00 | 0.00 | 29 | 1009.4 |
| 20260504184305 | 76 | 38 | 1.0 | 5.0 | 0.00 | 0.00 | 0.00 | 29 | 1009.4 |
| 20260504184205 | 75 | 136 | 1.0 | 5.0 | 0.00 | 0.00 | 0.00 | 29 | 1009.4 |
| 20260504184105 | 75 | 161 | 1.0 | 5.0 | 0.00 | 0.00 | 0.00 | 29 | 1009.4 |
| 20260504183905 | 75 | 163 | 1.0 | 4.0 | 0.00 | 0.00 | 0.00 | 28 | 1009.4 |
| 20260504183804 | 75 | 137 | 1.0 | 4.0 | 0.00 | 0.00 | 0.00 | 31 | 1009.4 |
| 20260504183704 | 74 | 265 | 1.0 | 6.0 | 0.00 | 0.00 | 0.00 | 29 | 1009.4 |
| 20260504183604 | 74 | 314 | 1.0 | 6.0 | 0.00 | 0.00 | 0.00 | 26 | 1009.5 |
| 20260504183504 | 75 | 313 | 2.0 | 6.0 | 0.00 | 0.00 | 0.00 | 25 | 1009.5 |
| 20260504183404 | 75 | 260 | 2.0 | 7.0 | 0.00 | 0.00 | 0.00 | 26 | 1009.5 |
| 20260504183204 | 75 | 238 | 2.0 | 7.0 | 0.00 | 0.00 | 0.00 | 26 | 1009.5 |
| 20260504183006 | 75 | 149 | 2.0 | 7.0 | 0.00 | 0.00 | 0.00 | 27 | 1009.5 |
| 20260504182703 | 75 | 150 | 2.0 | 7.0 | 0.00 | 0.00 | 0.00 | 28 | 1009.6 |
| 20260504182503 | 75 | 269 | 1.0 | 5.0 | 0.00 | 0.00 | 0.00 | 28 | 1009.6 |
| 20260504182404 | 75 | 266 | 2.0 | 5.0 | 0.00 | 0.00 | 0.00 | 28 | 1009.6 |
| 20260504182304 | 75 | 194 | 1.0 | 5.0 | 0.00 | 0.00 | 0.00 | 29 | 1009.6 |
| 20260504182204 | 75 | 144 | 2.0 | 5.0 | 0.00 | 0.00 | 0.00 | 28 | 1009.8 |
| 20260504182101 | 75 | 225 | 2.0 | 7.0 | 0.00 | 0.00 | 0.00 | 30 | 1009.7 |
| 20260504182003 | 75 | 128 | 2.0 | 7.0 | 0.00 | 0.00 | 0.00 | 28 | 1009.8 |
| 20260504181952 | 75 | 128 | 2.0 | 7.0 | 0.00 | 0.00 | 0.00 | 28 | 1009.8 |
| 20260504181842 | 75 | 261 | 2.0 | 7.0 | 0.00 | 0.00 | 0.00 | 29 | 1009.7 |
| 20260504181731 | 75 | 49 | 2.0 | 7.0 | 0.00 | 0.00 | 0.00 | 30 | 1009.7 |
| 20260504181622 | 75 | 81 | 2.0 | 7.0 | 0.00 | 0.00 | 0.00 | 32 | 1009.8 |
| 20260504181512 | 74 | 136 | 2.0 | 7.0 | 0.00 | 0.00 | 0.00 | 30 | 1009.8 |
| 20260504181311 | 74 | 130 | 2.0 | 7.0 | 0.00 | 0.00 | 0.00 | 29 | 1009.8 |
| 20260504181201 | 74 | 105 | 2.0 | 6.0 | 0.00 | 0.00 | 0.00 | 30 | 1009.8 |
| 20260504181102 | 74 | 234 | 2.0 | 6.0 | 0.00 | 0.00 | 0.00 | 29 | 1009.9 |
| 20260504181003 | 74 | 115 | 2.0 | 6.0 | 0.00 | 0.00 | 0.00 | 31 | 1009.9 |
| 20260504180941 | 74 | 139 | 1.0 | 6.0 | 0.00 | 0.00 | 0.00 | 31 | 1009.8 |
| 20260504180831 | 74 | 92 | 2.0 | 6.0 | 0.00 | 0.00 | 0.00 | 30 | 1009.9 |
| 20260504180611 | 74 | 139 | 2.0 | 6.0 | 0.00 | 0.00 | 0.00 | 29 | 1009.9 |
| 20260504180201 | 74 | 143 | 1.0 | 6.0 | 0.00 | 0.00 | 0.00 | 30 | 1009.9 |
| 20260504180044 | 74 | 169 | 2.0 | 4.0 | 0.00 | 0.00 | 0.00 | 33 | 1009.9 |
| 20260504175931 | 74 | 137 | 2.0 | 4.0 | 0.00 | 0.00 | 0.00 | 31 | 1009.9 |
| 20260504175821 | 74 | 188 | 2.0 | 4.0 | 0.00 | 0.00 | 0.00 | 33 | 1009.9 |
| 20260504175711 | 73 | 82 | 3.0 | 7.0 | 0.00 | 0.00 | 0.00 | 32 | 1009.8 |
| 20260504175601 | 73 | 73 | 3.0 | 6.0 | 0.00 | 0.00 | 0.00 | 33 | 1009.9 |
| 20260504175502 | 73 | 103 | 3.0 | 6.0 | 0.00 | 0.00 | 0.00 | 32 | 1009.9 |
| 20260504175304 | 73 | 151 | 3.0 | 6.0 | 0.00 | 0.00 | 0.00 | 31 | 1010.0 |
| 20260504175242 | 73 | 171 | 3.0 | 6.0 | 0.00 | 0.00 | 0.00 | 31 | 1010.0 |
| 20260504175030 | 73 | 171 | 3.0 | 9.0 | 0.00 | 0.00 | 0.00 | 34 | 1010.0 |
| 20260504174913 | 73 | 116 | 3.0 | 9.0 | 0.00 | 0.00 | 0.00 | 32 | 1010.0 |
| 20260504174603 | 73 | 90 | 2.0 | 9.0 | 0.00 | 0.00 | 0.00 | 33 | 1009.9 |
| 20260504174403 | 73 | 76 | 2.0 | 9.0 | 0.00 | 0.00 | 0.00 | 33 | 1010.0 |
| 20260504174303 | 73 | 105 | 2.0 | 9.0 | 0.00 | 0.00 | 0.00 | 33 | 1010.0 |
| 20260504174204 | 73 | 72 | 2.0 | 9.0 | 0.00 | 0.00 | 0.00 | 33 | 1010.0 |
| 20260504174101 | 73 | 108 | 2.0 | 9.0 | 0.00 | 0.00 | 0.00 | 32 | 1010.0 |
| 20260504173900 | 73 | 86 | 2.0 | 7.0 | 0.00 | 0.00 | 0.00 | 32 | 1010.0 |
| 20260504173842 | 73 | 79 | 2.0 | 7.0 | 0.00 | 0.00 | 0.00 | 31 | 1010.0 |
| 20260504173732 | 73 | 144 | 2.0 | 7.0 | 0.00 | 0.00 | 0.00 | 31 | 1010.0 |
| 20260504173621 | 73 | 166 | 1.0 | 7.0 | 0.00 | 0.00 | 0.00 | 33 | 1010.0 |
| 20260504173511 | 73 | 259 | 1.0 | 7.0 | 0.00 | 0.00 | 0.00 | 33 | 1010.0 |
| 20260504173401 | 73 | 91 | 1.0 | 7.0 | 0.00 | 0.00 | 0.00 | 34 | 1010.1 |
| 20260504173302 | 73 | 120 | 1.0 | 7.0 | 0.00 | 0.00 | 0.00 | 33 | 1010.1 |
| 20260504173202 | 73 | 242 | 1.0 | 7.0 | 0.00 | 0.00 | 0.00 | 32 | 1010.1 |
| 20260504173141 | 73 | 144 | 1.0 | 4.0 | 0.00 | 0.00 | 0.00 | 34 | 1010.0 |
| 20260504173004 | 73 | 128 | 1.0 | 4.0 | 0.00 | 0.00 | 0.00 | 34 | 1010.1 |
| 20260504172902 | 73 | 228 | 1.0 | 4.0 | 0.00 | 0.00 | 0.00 | 34 | 1010.1 |
| 20260504172702 | 73 | 297 | 1.0 | 4.0 | 0.00 | 0.00 | 0.00 | 31 | 1010.2 |
| 20260504172502 | 73 | 248 | 1.0 | 5.0 | 0.00 | 0.00 | 0.00 | 32 | 1010.1 |
| 20260504172401 | 73 | 201 | 2.0 | 5.0 | 0.00 | 0.00 | 0.00 | 34 | 1010.1 |
| 20260504172201 | 72 | 112 | 2.0 | 5.0 | 0.00 | 0.00 | 0.00 | 35 | 1010.2 |
| 20260504172101 | 72 | 134 | 2.0 | 5.0 | 0.00 | 0.00 | 0.00 | 35 | 1010.2 |
| 20260504172050 | 72 | 190 | 2.0 | 5.0 | 0.00 | 0.00 | 0.00 | 36 | 1010.2 |
| 20260504171829 | 72 | 136 | 2.0 | 5.0 | 0.00 | 0.00 | 0.00 | 34 | 1010.3 |
| 20260504171719 | 72 | 39 | 3.0 | 5.0 | 0.00 | 0.00 | 0.00 | 34 | 1010.1 |
| 20260504171609 | 72 | 84 | 3.0 | 9.0 | 0.00 | 0.00 | 0.00 | 34 | 1010.2 |
| 20260504171500 | 72 | 77 | 3.0 | 9.0 | 0.00 | 0.00 | 0.00 | 33 | 1010.2 |
| 20260504171400 | 72 | 119 | 3.0 | 9.0 | 0.00 | 0.00 | 0.00 | 33 | 1010.2 |
| 20260504171349 | 72 | 128 | 3.0 | 9.0 | 0.00 | 0.00 | 0.00 | 33 | 1010.2 |
| 20260504171239 | 72 | 58 | 3.0 | 9.0 | 0.00 | 0.00 | 0.00 | 35 | 1010.2 |
| 20260504170804 | 72 | 82 | 2.0 | 9.0 | 0.00 | 0.00 | 0.00 | 34 | 1010.2 |
| 20260504170727 | 72 | 74 | 2.0 | 6.0 | 0.00 | 0.00 | 0.00 | 34 | 1010.1 |
| 20260504170627 | 72 | 49 | 1.0 | 5.0 | 0.00 | 0.00 | 0.00 | 37 | 1010.3 |
| 20260504170526 | 72 | 79 | 1.0 | 5.0 | 0.00 | 0.00 | 0.00 | 35 | 1010.2 |
| 20260504170327 | 72 | 215 | 1.0 | 5.0 | 0.00 | 0.00 | 0.00 | 36 | 1010.2 |
| 20260504170128 | 72 | 103 | 1.0 | 5.0 | 0.00 | 0.00 | 0.00 | 36 | 1010.3 |
| 20260504160403 | 69 | 61 | 3.0 | 8.0 | 0.00 | 0.00 | 0.00 | 40 | 1010.2 |
| 20260504160303 | 69 | 22 | 3.0 | 8.0 | 0.00 | 0.00 | 0.00 | 39 | 1010.1 |
| 20260504160203 | 68 | 86 | 3.0 | 8.0 | 0.00 | 0.00 | 0.00 | 39 | 1010.3 |
| 20260504151002 | 66 | 91 | 2.0 | 8.0 | 0.00 | 0.00 | 0.00 | 42 | 1010.5 |
| 20260504150801 | 66 | 67 | 2.0 | 8.0 | 0.00 | 0.00 | 0.00 | 41 | 1010.5 |
| 20260504150701 | 66 | 127 | 2.0 | 7.0 | 0.00 | 0.00 | 0.00 | 42 | 1010.5 |
| 20260504150640 | 66 | 90 | 2.0 | 5.0 | 0.00 | 0.00 | 0.00 | 43 | 1010.5 |
| 20260504150532 | 66 | 96 | 2.0 | 5.0 | 0.00 | 0.00 | 0.00 | 42 | 1010.4 |
| 20260504150425 | 66 | 95 | 2.0 | 5.0 | 0.00 | 0.00 | 0.00 | 42 | 1010.5 |
| 20260504150203 | 67 | 66 | 1.0 | 5.0 | 0.00 | 0.00 | 0.00 | 42 | 1010.5 |
| 20260504150135 | 66 | 108 | 2.0 | 5.0 | 0.00 | 0.00 | 0.00 | 42 | 1010.4 |
| 20260504141206 | 64 | 108 | 0.0 | 3.0 | 0.00 | 0.00 | 0.00 | 45 | 1010.6 |
| 20260504141004 | 63 | 156 | 1.0 | 3.0 | 0.00 | 0.00 | 0.00 | 46 | 1010.5 |
| 20260504140904 | 63 | 39 | 1.0 | 3.0 | 0.00 | 0.00 | 0.00 | 45 | 1010.6 |
| 20260504140804 | 63 | 40 | 1.0 | 3.0 | 0.00 | 0.00 | 0.00 | 46 | 1010.6 |
| 20260504140704 | 63 | 80 | 1.0 | 3.0 | 0.00 | 0.00 | 0.00 | 45 | 1010.6 |
| 20260504140604 | 63 | 67 | 1.0 | 3.0 | 0.00 | 0.00 | 0.00 | 46 | 1010.6 |
| 20260504140503 | 63 | 84 | 1.0 | 3.0 | 0.00 | 0.00 | 0.00 | 46 | 1010.6 |
| 20260504140404 | 63 | 86 | 1.0 | 3.0 | 0.00 | 0.00 | 0.00 | 46 | 1010.6 |
| 20260504140204 | 62 | 80 | 1.0 | 3.0 | 0.00 | 0.00 | 0.00 | 46 | 1010.5 |
| 20260504140104 | 62 | 77 | 1.0 | 3.0 | 0.00 | 0.00 | 0.00 | 46 | 1010.6 |
| 20260504130803 | 57 | 91 | 1.0 | 4.0 | 0.00 | 0.00 | 0.00 | 46 | 1010.5 |
| 20260504130703 | 57 | 97 | 1.0 | 4.0 | 0.00 | 0.00 | 0.00 | 45 | 1010.6 |
| 20260504130603 | 57 | 79 | 1.0 | 4.0 | 0.00 | 0.00 | 0.00 | 45 | 1010.5 |
| 20260504130502 | 57 | 76 | 1.0 | 4.0 | 0.00 | 0.00 | 0.00 | 46 | 1010.5 |
| 20260504130203 | 56 | 88 | 1.0 | 4.0 | 0.00 | 0.00 | 0.00 | 46 | 1010.6 |
| 20260504130103 | 56 | 105 | 1.0 | 4.0 | 0.00 | 0.00 | 0.00 | 46 | 1010.6 |
| 20260504120303 | 51 | 71 | 0.0 | 0.0 | 0.00 | 0.00 | 0.00 | 54 | 1010.6 |
| 20260504110703 | 54 | 103 | 0.0 | 1.0 | 0.00 | 0.00 | 0.00 | 48 | 1010.7 |
| 20260504110503 | 54 | 103 | 0.0 | 1.0 | 0.00 | 0.00 | 0.00 | 48 | 1010.8 |
| 20260504110403 | 54 | 103 | 0.0 | 1.0 | 0.00 | 0.00 | 0.00 | 48 | 1010.7 |
| 20260504110303 | 54 | 103 | 0.0 | 1.0 | 0.00 | 0.00 | 0.00 | 47 | 1010.8 |
| 20260504110211 | 54 | 103 | 0.0 | 1.0 | 0.00 | 0.00 | 0.00 | 47 | 1010.7 |
| 20260504100524 | 53 | 105 | 0.0 | 0.0 | 0.00 | 0.00 | 0.00 | 51 | 1010.5 |
| 20260504100324 | 53 | 105 | 0.0 | 0.0 | 0.00 | 0.00 | 0.00 | 50 | 1010.5 |
| 20260504100224 | 54 | 105 | 0.0 | 0.0 | 0.00 | 0.00 | 0.00 | 50 | 1010.5 |
| 20260504100131 | 54 | 105 | 0.0 | 0.0 | 0.00 | 0.00 | 0.00 | 50 | 1010.6 |
| 20260504082004 | 53 | 271 | 0.0 | 0.0 | 0.00 | 0.00 | 0.00 | 44 | 1009.8 |
| 20260504081903 | 53 | 271 | 0.0 | 0.0 | 0.00 | 0.00 | 0.00 | 44 | 1009.7 |
| 20260504081803 | 53 | 271 | 0.0 | 0.0 | 0.00 | 0.00 | 0.00 | 44 | 1009.8 |
| 20260504081702 | 53 | 271 | 0.0 | 0.0 | 0.00 | 0.00 | 0.00 | 43 | 1009.8 |
| 20260504081503 | 53 | 270 | 0.0 | 0.0 | 0.00 | 0.00 | 0.00 | 43 | 1009.8 |
| 20260504081404 | 53 | 271 | 0.0 | 0.0 | 0.00 | 0.00 | 0.00 | 44 | 1009.7 |
| 20260504081304 | 53 | 270 | 0.0 | 0.0 | 0.00 | 0.00 | 0.00 | 44 | 1009.8 |
| 20260504081203 | 53 | 271 | 0.0 | 0.0 | 0.00 | 0.00 | 0.00 | 43 | 1009.8 |
| 20260504081103 | 53 | 271 | 0.0 | 0.0 | 0.00 | 0.00 | 0.00 | 43 | 1009.8 |
| 20260504081004 | 54 | 271 | 0.0 | 0.0 | 0.00 | 0.00 | 0.00 | 42 | 1009.8 |
| 20260504080904 | 54 | 271 | 0.0 | 0.0 | 0.00 | 0.00 | 0.00 | 42 | 1009.7 |
| 20260504080803 | 54 | 271 | 0.0 | 0.0 | 0.00 | 0.00 | 0.00 | 42 | 1009.8 |
| 20260504080704 | 54 | 271 | 0.0 | 0.0 | 0.00 | 0.00 | 0.00 | 41 | 1009.8 |
| 20260504080603 | 54 | 271 | 0.0 | 0.0 | 0.00 | 0.00 | 0.00 | 41 | 1009.8 |
| 20260504080404 | 54 | 270 | 0.0 | 0.0 | 0.00 | 0.00 | 0.00 | 41 | 1009.8 |
| 20260504080303 | 54 | 271 | 0.0 | 0.0 | 0.00 | 0.00 | 0.00 | 41 | 1009.8 |
| 20260504080203 | 55 | 270 | 0.0 | 1.0 | 0.00 | 0.00 | 0.00 | 41 | 1009.9 |
| 20260504070339 | 57 | 46 | 0.0 | 2.0 | 0.00 | 0.00 | 0.00 | 36 | 1010.0 |
| 20260504070119 | 56 | 31 | 0.0 | 1.0 | 0.00 | 0.00 | 0.00 | 37 | 1009.9 |
| 20260504060205 | 55 | 65 | 0.0 | 0.0 | 0.00 | 0.00 | 0.00 | 42 | 1010.0 |